Back to catalog

STARLINK-34529

AliveCommunicationsSSO
NORAD 64936·PAYLOAD·🇺🇸 United States

Launched Jul 26, 2025 from Vandenberg Space Force Base

Loading…

Next Passes (next 24 hours)

TLE

FreshSource: CelesTrak SupGP

Epoch: Sep 14, 2026, 20:43 UTC

1 64936C 25158E   26257.86368056  .00007008  00000+0  21764-3 0  2577
2 64936  97.2843 116.2019 0001507  87.3886 114.5156 15.33418954    13

Track STARLINK-34529 in real time with AllMySat

Download on the App Store